DW4070 Weather Reports


time (UTC)temp
C
wind
direction
speed
KPH
gust
KPH
rain 1hr
cm
rain 24hr
cm
rain mn
cm
humidity
%
barometer
mb
20260503224549 13 116 0.0 4.8 0.00 0.00 0.00 31 1011.4
20260503223049 13 115 0.0 8.0 0.00 0.00 0.00 32 1011.4
20260503221546 13 11 1.6 8.0 0.00 0.00 0.00 33 1011.4
20260503220047 13 284 0.0 14.5 0.00 0.00 0.00 31 1011.3
20260503214547 14 285 1.6 11.3 0.00 0.00 0.00 32 1011.3
20260503213046 13 265 1.6 9.7 0.00 0.00 0.00 36 1011.1
20260503211544 13 5 1.6 9.7 0.00 0.00 0.00 30 1011.2
20260503210044 13 274 3.2 30.6 0.00 0.00 0.00 33 1011.3
20260503204542 13 69 1.6 6.4 0.00 0.00 0.00 32 1011.2
20260503203049 13 61 1.6 8.0 0.00 0.00 0.00 33 1011.3
20260503201543 14 22 1.6 12.9 0.00 0.00 0.00 34 1011.3
20260503200037 13 33 3.2 24.1 0.00 0.00 0.00 33 1011.1
20260503194534 13 27 1.6 8.0 0.00 0.00 0.00 36 1011.5
20260503193033 13 69 1.6 14.5 0.00 0.00 0.00 40 1011.6
20260503191537 13 76 3.2 9.7 0.00 0.00 0.00 38 1011.7
20260503190035 13 355 3.2 9.7 0.00 0.00 0.00 36 1011.9
20260503184529 13 61 1.6 16.1 0.00 0.00 0.00 42 1012.1
20260503183029 12 282 1.6 17.7 0.00 0.00 0.00 36 1012.1
20260503181528 12 46 1.6 14.5 0.00 0.00 0.00 37 1012.2
20260503180040 12 266 0.0 16.1 0.00 0.00 0.00 41 1012.0
20260503174528 12 286 3.2 14.5 0.00 0.00 0.00 37 1012.1
20260503173027 13 40 4.8 12.9 0.00 0.00 0.00 35 1012.0
20260503171526 12 267 1.6 11.3 0.00 0.00 0.00 37 1012.2
20260503081537 6 26 0.0 8.0 0.00 0.13 0.00 62 1012.0
20260503071530 7 13 0.0 3.2 0.00 0.13 0.00 59 1011.9
20260503054518 8 265 0.0 3.2 0.00 0.13 0.00 56 1012.3
20260503053014 8 265 0.0 4.8 0.00 0.13 0.00 56 1012.5
20260503051513 8 265 0.0 3.2 0.00 0.13 0.00 55 1012.7
20260503050010 8 265 0.0 0.0 0.00 0.13 0.00 57 1012.7
20260503044611 8 265 0.0 1.6 0.00 0.13 0.00 55 1012.9
20260503043020 8 265 0.0 0.0 0.00 0.13 0.00 59 1013.0
20260503041505 8 265 0.0 0.0 0.00 0.13 0.00 60 1012.9
20260503040003 8 265 0.0 3.2 0.00 0.13 0.13 61 1012.8
20260503034503 8 265 0.0 1.6 0.00 0.13 0.13 69 1012.8
20260503033009 8 265 0.0 0.0 0.00 0.13 0.13 67 1012.6
20260503031502 8 265 0.0 0.0 0.00 0.13 0.13 71 1012.5
20260503030002 8 265 0.0 0.0 0.00 0.13 0.13 74 1012.6
20260503024503 8 265 0.0 0.0 0.00 0.13 0.13 72 1012.4
20260503023104 9 265 0.0 0.0 0.00 0.13 0.13 69 1012.5
20260503021603 9 265 0.0 0.0 0.00 0.13 0.13 71 1012.8
20260503014607 10 265 0.0 0.0 0.00 0.13 0.13 64 1012.8
20260503013058 10 265 0.0 0.0 0.00 0.13 0.13 57 1012.8
20260503011604 10 265 0.0 0.0 0.00 0.13 0.13 62 1012.8
20260503010103 10 265 0.0 0.0 0.00 0.13 0.13 69 1012.5
20260503004607 10 265 0.0 0.0 0.00 0.13 0.13 67 1012.4
20260503003110 10 265 0.0 0.0 0.00 0.13 0.13 64 1012.2
20260503001655 11 265 0.0 0.0 0.00 0.13 0.13 62 1012.2
20260503000054 11 265 0.0 0.0 0.00 0.13 0.13 62 1012.1
20260502234554 11 265 0.0 0.0 0.00 0.13 0.13 55 1011.9
20260502233054 12 265 0.0 0.0 0.00 0.13 0.13 57 1011.8
20260502231553 13 265 0.0 0.0 0.00 0.13 0.13 52 1011.7
20260502230053 13 265 0.0 0.0 0.00 0.13 0.13 49 1011.6